Wind_Speed
19 23 16 21 19 21 19 21 16 15 31 26 22 13 14 12 6 7 10 2 4 7 14 26 33 33 37 40 40 37 42 43 37 34 33 33 37 39 37 38 38 38 42 47
19 14 18 16 13 15 24 23 27 27 25 28 13 6 15 10 7 7 11 11 10 6 15 21 23 25 31 32 33 35 38 42 39 35 32 33 31 29 33 34 37 35 43 38
8 17 17 3 14 18 24 29 29 35 29 21 17 15 18 22 20 12 7 9 5 7 7 12 23 22 23 32 33 35 35 36 37 35 35 34 31 33 31 35 34 30 36 39
11 12 4 6 7 12 15 20 25 25 22 16 11 10 14 18 20 21 14 8 13 13 3 4 9 24 23 25 32 33 33 33 37 43 36 31 28 28 26 27 28 28 27 31
6 8 12 9 16 24 19 19 27 25 24 25 14 9 10 15 15 15 12 13 12 16 15 7 2 6 16 22 30 39 39 37 44 52 28 28 31 26 24 27 27 16 15 15
14 4 3 20 24 14 11 20 31 29 29 30 20 19 18 11 9 10 10 4 8 14 14 17 9 1 6 12 18 25 31 33 37 40 36 36 31 24 27 25 30 26 24 23
18 6 7 31 30 14 17 19 28 27 30 32 32 29 17 5 1 6 6 4 7 3 9 14 9 7 2 3 4 12 22 22 26 28 33 33 30 29 24 28 28 31 28 31
15 7 6 30 29 22 19 21 21 20 21 28 29 30 21 12 7 5 8 6 1 8 0 9 15 9 5 6 7 11 18 19 29 19 25 23 21 23 31 26 25 31 32 29
10 14 17 16 12 17 15 16 17 19 19 21 23 25 26 28 11 3 8 5 6 6 6 1 3 16 10 12 9 3 9 12 16 16 20 26 26 28 27 32 30 29 30 28
15 18 17 13 14 17 15 17 18 19 19 18 20 18 22 24 23 16 1 4 5 5 8 13 7 4 6 7 7 7 6 6 5 8 17 22 23 22 26 25 28 31 30 28
15 18 15 16 15 17 17 16 17 16 18 17 18 18 17 18 21 20 19 9 2 2 7 10 16 12 2 4 4 2 3 4 5 5 7 11 13 18 21 23 26 27 26 26
16 19 19 19 18 17 15 17 17 18 19 17 18 17 18 16 13 15 17 21 15 6 4 6 5 8 15 12 6 4 8 5 3 3 6 8 10 12 14 16 19 23 24 26
19 20 20 21 22 21 23 22 22 23 21 22 19 18 19 19 16 15 14 13 20 20 14 12 13 12 10 14 10 10 10 8 9 8 9 7 8 10 13 14 15 17 19 22
21 26 27 29 31 30 30 31 31 30 28 27 25 24 23 23 22 20 19 19 18 19 19 24 21 21 19 18 17 14 12 10 9 11 12 12 13 13 13 14 16 17 18 19
29 34 37 38 36 33 33 36 37 38 38 37 34 34 32 28 28 26 23 24 25 24 21 23 29 29 27 26 25 21 19 17 12 9 9 13 15 17 19 20 20 19 20 21
35 39 37 38 36 35 34 33 36 37 37 38 39 39 38 38 38 35 33 29 28 31 30 27 30 30 33 31 30 29 27 23 21 18 16 14 13 15 18 22 25 26 27 27
40 38 38 40 41 45 45 42 38 37 37 34 34 36 41 43 43 43 40 38 36 34 34 37 36 35 37 37 34 32 30 31 28 25 25 24 22 20 19 19 19 24 30 33
41 39 40 42 46 48 50 47 40 37 35 33 32 33 34 36 39 43 45 44 45 46 43 38 39 40 40 40 41 40 38 35 34 33 31 30 29 28 26 27 28 27 24 25
42 42 44 45 47 51 51 48 38 33 32 32 32 33 32 33 35 37 38 43 49 50 48 48 45 40 42 45 43 44 46 45 42 41 39 37 36 35 34 34 33 32 32 33
42 44 47 48 50 51 51 42 35 32 30 32 32 33 33 32 31 33 35 40 43 48 53 51 49 47 45 41 39 42 47 47 47 46 44 43 42 41 40 37 37 37 35 35
45 48 48 50 53 51 45 36 34 32 32 30 31 31 32 32 30 30 33 37 35 37 42 52 52 48 45 45 45 41 39 39 41 45 48 47 46 43 41 40 41 40 38 39
46 49 51 53 53 50 39 33 31 32 32 30 29 30 31 31 31 30 30 32 29 28 31 35 47 47 43 40 36 35 39 40 37 35 38 44 46 47 46 43 40 41 42 41
48 51 53 52 52 44 35 31 32 32 31 29 28 28 29 30 30 31 30 22 25 24 26 27 33 40 39 39 40 38 35 35 36 36 36 34 35 36 38 41 43 46 42 46
51 52 52 52 43 34 32 30 30 29 27 25 27 30 30 29 28 28 27 25 23 24 24 24 23 32 36 36 38 38 35 34 33 35 37 40 41 42 43 43 43 41 40 41
51 50 50 44 33 30 31 30 28 28 26 26 29 28 25 23 26 25 25 24 21 22 22 21 22 24 29 35 36 36 35 35 35 33 34 36 39 40 40 41 42 42 43 44
48 49 43 32 29 30 32 30 29 30 29 27 24 20 20 22 23 24 23 21 19 18 19 19 20 21 24 29 31 33 35 37 38 36 37 37 37 38 39 41 42 42 42 43
46 40 31 26 26 28 29 28 28 27 26 24 22 20 19 21 22 23 21 19 17 15 15 17 20 21 22 24 28 32 36 38 39 39 41 40 40 41 43 43 43 45 46 46
Wind_Direction
302 314 316 321 332 348 4 17 14 26 32 22 6 31 71 77 57 77 91 205 225 209 227 219 221 227 232 234 239 236 230 232 233 233 237 240 242 239 243 240 242 242 248 237
306 322 328 327 357 60 48 34 28 22 22 20 3 56 88 102 79 75 72 81 99 168 199 215 229 223 223 226 225 225 229 231 236 233 237 244 235 238 239 245 247 254 259 260
290 327 317 125 35 38 33 39 32 26 9 25 12 33 55 79 98 84 80 71 72 141 127 194 209 223 222 224 227 229 227 227 227 232 236 231 222 231 242 241 253 259 263 254
294 336 16 139 337 354 21 17 24 33 34 21 26 9 18 52 66 91 96 114 101 97 205 143 160 216 212 201 222 217 224 224 234 233 241 222 232 234 235 236 241 267 254 245
286 325 298 320 339 349 338 18 10 15 31 41 59 51 53 50 33 44 79 98 135 121 115 172 192 190 169 205 223 221 226 239 251 236 236 230 232 229 235 230 230 242 198 218
328 263 46 2 350 327 328 32 6 357 360 16 33 42 23 49 59 36 20 55 94 149 146 113 149 217 226 186 183 203 217 209 210 226 214 223 225 233 224 231 222 222 221 214
358 327 93 15 3 357 40 349 360 359 355 358 6 13 14 319 247 110 50 8 329 59 118 133 120 117 161 117 197 194 203 208 186 200 208 210 216 231 227 228 223 234 235 232
352 354 354 357 4 23 359 351 345 355 3 357 358 356 6 24 230 215 140 130 122 23 69 87 78 83 90 156 168 237 254 213 222 206 189 212 232 231 225 222 230 237 233 235
304 318 330 351 328 341 341 334 338 341 353 353 352 351 353 351 5 253 240 253 236 251 53 94 195 86 70 73 69 122 224 201 192 195 210 225 236 212 234 236 229 225 232 230
352 342 348 354 342 345 341 336 331 327 331 335 334 341 338 340 341 342 179 91 122 44 25 3 17 186 112 95 79 83 141 157 172 165 186 194 195 197 216 227 233 235 233 233
18 9 355 359 353 354 351 346 341 336 329 322 316 315 317 327 331 328 334 277 210 9 5 11 347 342 10 195 251 287 59 138 177 174 175 180 182 186 195 205 210 213 216 219
18 10 7 2 352 342 338 336 332 328 324 322 321 317 313 307 303 312 319 313 289 236 264 274 280 311 322 334 347 312 267 295 279 227 211 207 200 197 197 197 201 209 212 216
358 354 348 339 335 329 326 324 319 315 313 311 310 305 306 308 304 287 285 287 295 274 231 245 254 259 259 285 304 310 320 307 282 286 270 257 242 232 223 219 209 208 211 214
350 342 335 334 328 320 314 309 305 302 299 296 293 291 292 292 296 290 278 270 266 272 267 255 252 255 255 262 271 286 284 300 316 311 294 287 269 264 263 255 241 235 233 228
343 340 337 330 324 317 307 300 294 291 289 286 283 283 281 282 281 275 275 266 258 255 254 250 256 255 255 256 259 254 258 265 271 275 293 304 301 293 279 268 263 263 258 250
340 335 331 328 325 326 323 313 304 297 290 282 278 276 274 273 275 275 269 264 266 257 251 244 240 248 255 257 254 256 253 255 258 264 265 273 276 286 295 294 286 274 269 268
336 329 331 329 333 335 332 326 317 305 302 296 289 282 276 270 266 265 264 260 257 258 258 253 245 241 242 247 251 252 250 251 249 253 263 271 273 272 279 275 278 281 280 276
324 321 325 329 330 331 331 327 318 311 306 302 297 290 285 281 275 268 261 259 256 251 250 250 251 248 244 243 243 245 248 246 247 252 254 258 262 268 272 277 282 279 279 278
319 321 324 329 331 329 329 325 317 311 308 305 300 297 293 287 281 277 273 264 254 253 250 250 248 248 248 244 245 245 244 245 246 247 251 255 256 262 264 272 276 277 281 281
318 321 326 328 329 329 327 322 315 312 312 307 304 301 299 295 289 280 276 273 265 256 250 249 251 250 244 244 246 249 248 247 245 246 247 247 248 253 256 260 266 271 270 270
321 323 326 327 328 328 326 320 314 314 314 311 307 304 301 301 296 288 282 282 277 268 263 251 246 249 248 247 242 243 248 250 252 254 252 250 251 251 252 255 259 262 263 269
323 325 325 326 327 326 324 319 316 316 317 315 311 307 304 302 300 293 287 291 290 278 272 264 246 243 246 245 247 251 249 249 248 250 253 251 251 252 253 254 254 257 261 264
324 324 324 326 326 324 322 323 320 319 318 316 316 315 310 306 302 299 296 300 288 281 276 273 251 239 242 244 247 250 252 249 246 246 249 251 250 248 247 250 254 255 262 262
323 323 324 326 326 323 323 325 325 325 321 321 322 322 316 313 310 302 298 292 287 281 275 266 258 241 240 243 245 246 245 247 247 245 245 247 250 253 255 258 258 260 259 262
320 323 326 328 326 325 326 325 324 323 316 314 318 320 321 326 325 319 304 298 288 283 276 262 251 250 246 246 246 243 241 242 246 247 250 252 254 257 260 261 259 257 259 261
323 327 328 328 325 327 328 324 319 319 318 318 319 320 326 327 327 331 328 312 301 281 272 266 256 254 251 249 245 242 237 241 247 252 255 259 261 261 261 260 261 262 263 264
327 329 326 325 326 328 327 323 320 322 324 323 321 321 321 322 322 323 322 324 322 306 276 261 257 255 249 247 245 242 242 247 253 256 256 258 259 261 263 264 266 264 262 263
Height
3001 2996 2994 2992 2987 2980 2974 2969 2969 2966 2960 2957 2954 2949 2946 2947 2948 2950 2951 2954 2957 2959 2963 2968 2974 2980 2986 2993 2999 3007 3012 3020 3026 3032 3038 3043 3048 3054 3058 3062 3066 3069 3072 3074
2997 2993 2991 2988 2988 2981 2977 2971 2968 2966 2962 2962 2959 2955 2950 2949 2949 2949 2950 2953 2956 2960 2964 2967 2968 2973 2979 2985 2992 3000 3007 3013 3020 3025 3031 3035 3041 3045 3049 3053 3057 3058 3060 3061
2994 2990 2985 2987 2986 2985 2982 2976 2973 2969 2970 2964 2962 2958 2953 2950 2949 2952 2952 2953 2955 2959 2961 2964 2968 2971 2975 2980 2987 2993 2998 3004 3011 3016 3022 3028 3032 3036 3040 3045 3047 3048 3046 3046
2993 2989 2991 2987 2985 2983 2983 2980 2976 2974 2968 2967 2963 2962 2960 2955 2952 2951 2955 2956 2955 2957 2959 2962 2965 2969 2973 2977 2982 2988 2993 2998 3003 3009 3013 3020 3023 3027 3031 3036 3040 3040 3036 3039
2995 2991 2989 2987 2984 2982 2980 2981 2978 2975 2972 2968 2964 2963 2960 2959 2959 2958 2955 2957 2957 2959 2960 2963 2964 2967 2969 2974 2978 2982 2986 2990 2993 2995 2997 3009 3017 3019 3024 3027 3032 3033 3033 3036
2996 2991 2991 2995 2985 2981 2977 2980 2980 2979 2975 2970 2966 2962 2964 2963 2963 2961 2961 2959 2961 2959 2961 2962 2965 2966 2967 2969 2971 2975 2980 2978 2987 2991 2993 3003 3010 3011 3015 3019 3023 3028 3030 3032
2993 2992 2991 2991 2987 2983 2984 2993 2984 2981 2977 2974 2972 2972 2969 2968 2967 2966 2964 2962 2961 2963 2961 2960 2964 2967 2968 2969 2968 2973 2976 2978 2977 2980 2989 2995 2998 3003 3007 3012 3016 3021 3023 3027
3000 2997 2997 2994 2991 2992 2995 2991 2988 2985 2982 2979 2976 2974 2971 2971 2969 2969 2967 2966 2963 2961 2963 2963 2962 2964 2966 2969 2970 2971 2973 2973 2977 2975 2976 2985 2990 2997 3001 3004 3008 3014 3016 3019
3008 3006 3002 3000 2997 2996 2994 2993 2989 2986 2983 2981 2978 2976 2975 2973 2970 2968 2967 2968 2967 2966 2965 2965 2965 2964 2966 2969 2972 2972 2973 2973 2973 2975 2977 2979 2986 2991 2995 3000 3003 3006 3011 3012
3007 3004 3001 2999 2997 2995 2993 2990 2989 2985 2982 2979 2977 2976 2975 2973 2969 2970 2968 2967 2968 2968 2967 2967 2968 2967 2968 2968 2971 2973 2972 2973 2973 2973 2973 2977 2982 2984 2989 2992 2996 3000 3004 3007
3007 3005 3002 3000 2997 2994 2991 2988 2986 2985 2981 2978 2976 2974 2972 2971 2972 2971 2970 2968 2967 2967 2968 2967 2968 2968 2969 2969 2971 2971 2971 2972 2974 2974 2975 2976 2978 2980 2985 2988 2991 2994 2997 3001
3008 3007 3004 3001 2997 2994 2990 2987 2985 2981 2979 2977 2975 2972 2970 2969 2967 2967 2969 2969 2967 2966 2967 2967 2967 2969 2968 2969 2969 2969 2970 2971 2972 2974 2977 2977 2979 2982 2983 2984 2986 2990 2994 2997
3010 3007 3004 3001 2997 2994 2990 2986 2983 2980 2976 2972 2971 2969 2967 2965 2964 2964 2964 2964 2965 2966 2963 2965 2966 2968 2967 2967 2967 2968 2968 2969 2970 2972 2973 2975 2977 2979 2981 2983 2984 2986 2988 2991
3009 3004 3001 2997 2992 2989 2985 2980 2977 2974 2971 2969 2965 2962 2960 2959 2958 2958 2958 2958 2958 2959 2961 2962 2962 2964 2965 2964 2964 2966 2968 2969 2969 2968 2969 2971 2973 2975 2977 2979 2981 2984 2986 2988
3004 3000 2995 2990 2985 2980 2976 2970 2966 2963 2960 2958 2957 2955 2953 2951 2950 2950 2951 2951 2951 2951 2953 2955 2956 2957 2958 2960 2961 2963 2964 2966 2967 2968 2969 2968 2969 2970 2972 2974 2976 2979 2981 2983
2997 2994 2989 2984 2978 2971 2966 2960 2954 2949 2946 2944 2942 2942 2941 2940 2938 2938 2939 2941 2940 2942 2943 2944 2946 2950 2951 2952 2954 2957 2958 2959 2961 2961 2963 2965 2967 2968 2968 2968 2969 2971 2973 2975
2991 2986 2982 2976 2970 2963 2956 2950 2944 2938 2933 2930 2928 2926 2925 2925 2924 2925 2926 2928 2929 2929 2930 2932 2934 2938 2940 2942 2944 2947 2949 2951 2952 2954 2956 2957 2958 2960 2962 2963 2965 2966 2967 2967
2989 2983 2977 2969 2961 2953 2946 2940 2933 2927 2922 2919 2916 2914 2912 2910 2908 2908 2910 2912 2912 2913 2915 2919 2921 2925 2927 2930 2932 2934 2937 2939 2942 2944 2947 2949 2950 2952 2953 2954 2956 2959 2959 2961
2982 2974 2968 2960 2953 2945 2936 2928 2922 2917 2913 2909 2905 2902 2900 2898 2896 2895 2894 2894 2895 2896 2900 2904 2908 2910 2912 2916 2919 2921 2923 2925 2929 2932 2936 2938 2940 2942 2943 2944 2946 2949 2950 2950
2973 2966 2958 2949 2943 2936 2926 2919 2912 2907 2904 2899 2895 2891 2888 2886 2884 2882 2881 2877 2878 2879 2884 2887 2890 2893 2897 2901 2905 2907 2909 2911 2915 2918 2922 2925 2927 2929 2932 2933 2935 2937 2938 2939
2963 2955 2947 2940 2931 2924 2916 2909 2903 2898 2895 2890 2885 2882 2878 2875 2873 2871 2867 2863 2865 2865 2866 2869 2873 2877 2882 2886 2891 2894 2897 2899 2902 2905 2908 2912 2915 2917 2919 2921 2923 2924 2925 2927
2953 2946 2938 2930 2921 2912 2907 2901 2895 2890 2886 2882 2878 2873 2869 2865 2862 2859 2857 2854 2853 2852 2851 2850 2854 2861 2867 2873 2876 2879 2883 2886 2889 2892 2894 2897 2900 2902 2905 2907 2909 2911 2913 2915
2944 2937 2929 2920 2911 2903 2898 2893 2888 2883 2878 2873 2869 2865 2861 2856 2853 2849 2846 2848 2843 2842 2841 2840 2842 2848 2854 2859 2862 2867 2870 2873 2876 2880 2882 2884 2886 2889 2892 2894 2896 2899 2900 2901
2935 2927 2919 2911 2903 2897 2891 2887 2881 2876 2871 2868 2864 2859 2853 2848 2844 2841 2838 2837 2836 2834 2833 2834 2835 2838 2843 2846 2850 2854 2858 2862 2864 2867 2870 2872 2874 2876 2878 2881 2883 2885 2886 2885
2925 2918 2910 2902 2895 2890 2885 2879 2875 2870 2866 2862 2858 2853 2848 2843 2838 2834 2830 2828 2828 2827 2826 2827 2829 2831 2834 2836 2839 2843 2847 2851 2854 2856 2858 2860 2862 2864 2865 2867 2868 2869 2871 2871
2916 2909 2901 2895 2889 2884 2878 2873 2868 2864 2858 2854 2851 2846 2842 2839 2834 2830 2825 2822 2821 2820 2820 2821 2823 2825 2826 2828 2831 2834 2838 2841 2844 2846 2848 2850 2851 2853 2854 2854 2855 2855 2856 2857
2909 2901 2894 2890 2885 2880 2874 2868 2862 2858 2853 2848 2844 2840 2837 2833 2830 2826 2822 2819 2816 2814 2814 2815 2816 2818 2819 2821 2823 2826 2829 2832 2834 2836 2838 2839 2839 2840 2840 2841 2841 2841 2841 2841